Year,Month,Day,Hour,Minute,Value (Times are PST for temperature in C)
2020,04,11,00,00,10.20
2020,04,11,00,01,10.20
2020,04,11,00,02,10.20
2020,04,11,00,03,10.10
2020,04,11,00,04,10.10
2020,04,11,00,05,10.10
2020,04,11,00,06,10.10
2020,04,11,00,07,10.10
2020,04,11,00,08,10.10
2020,04,11,00,09,10.10
2020,04,11,00,10,10.10
2020,04,11,00,11,10.10
2020,04,11,00,12,10.10
2020,04,11,00,13,10.10
2020,04,11,00,14,10.10
2020,04,11,00,15,10.00
2020,04,11,00,16,10.00
2020,04,11,00,17,10.00
2020,04,11,00,18,10.00
2020,04,11,00,19,9.90
2020,04,11,00,20,9.90
2020,04,11,00,21,9.90
2020,04,11,00,22,9.90
2020,04,11,00,23,9.90
2020,04,11,00,24,9.90
2020,04,11,00,25,9.90
2020,04,11,00,26,9.90
2020,04,11,00,27,9.90
2020,04,11,00,28,10.00
2020,04,11,00,29,10.00
2020,04,11,00,30,10.00
2020,04,11,00,31,9.90
2020,04,11,00,32,9.90
2020,04,11,00,33,9.90
2020,04,11,00,34,9.90
2020,04,11,00,35,9.90
2020,04,11,00,36,9.80
2020,04,11,00,37,9.90
2020,04,11,00,38,9.90
2020,04,11,00,39,9.90
2020,04,11,00,40,9.90
2020,04,11,00,41,9.90
2020,04,11,00,42,9.90
2020,04,11,00,43,9.80
2020,04,11,00,44,9.80
2020,04,11,00,45,9.80
2020,04,11,00,46,9.80
2020,04,11,00,47,9.80
2020,04,11,00,48,9.80
2020,04,11,00,49,9.80
2020,04,11,00,50,9.80
2020,04,11,00,51,9.70
2020,04,11,00,52,9.70
2020,04,11,00,53,9.70
2020,04,11,00,54,9.70
2020,04,11,00,55,9.60
2020,04,11,00,56,9.60
2020,04,11,00,57,9.60
2020,04,11,00,58,9.50
2020,04,11,00,59,9.50
2020,04,11,01,00,9.50
2020,04,11,01,01,9.50
2020,04,11,01,02,9.50
2020,04,11,01,03,9.40
2020,04,11,01,04,9.40
2020,04,11,01,05,9.40
2020,04,11,01,06,9.40
2020,04,11,01,07,9.40
2020,04,11,01,08,9.40
2020,04,11,01,09,9.40
2020,04,11,01,10,9.40
2020,04,11,01,11,9.40
2020,04,11,01,12,9.40
2020,04,11,01,13,9.40
2020,04,11,01,14,9.40
2020,04,11,01,15,9.40
2020,04,11,01,16,9.40
2020,04,11,01,17,9.40
2020,04,11,01,18,9.30
2020,04,11,01,19,9.40
2020,04,11,01,20,9.40
2020,04,11,01,21,9.40
2020,04,11,01,22,9.40
2020,04,11,01,23,9.30
2020,04,11,01,24,9.30
2020,04,11,01,25,9.30
2020,04,11,01,26,9.30
2020,04,11,01,27,9.30
2020,04,11,01,28,9.30
2020,04,11,01,29,9.30
2020,04,11,01,30,9.30
2020,04,11,01,31,9.30
2020,04,11,01,32,9.30
2020,04,11,01,33,9.20
2020,04,11,01,34,9.20
2020,04,11,01,35,9.20
2020,04,11,01,36,9.20
2020,04,11,01,37,9.20
2020,04,11,01,38,9.20
2020,04,11,01,39,9.20
2020,04,11,01,40,9.20
2020,04,11,01,41,9.20
2020,04,11,01,42,9.20
2020,04,11,01,43,9.20
2020,04,11,01,44,9.20
2020,04,11,01,45,9.20
2020,04,11,01,46,9.10
2020,04,11,01,47,9.10
2020,04,11,01,48,9.10
2020,04,11,01,49,9.10
2020,04,11,01,50,9.00
2020,04,11,01,51,9.00
2020,04,11,01,52,9.00
2020,04,11,01,53,9.00
2020,04,11,01,54,9.00
2020,04,11,01,55,9.00
2020,04,11,01,56,9.00
2020,04,11,01,57,9.00
2020,04,11,01,58,9.00
2020,04,11,01,59,9.10
2020,04,11,02,00,9.10
2020,04,11,02,01,9.00
2020,04,11,02,02,9.00
2020,04,11,02,03,9.00
2020,04,11,02,04,9.00
2020,04,11,02,05,9.00
2020,04,11,02,06,9.00
2020,04,11,02,07,9.00
2020,04,11,02,08,8.90
2020,04,11,02,09,8.90
2020,04,11,02,10,8.90
2020,04,11,02,11,8.90
2020,04,11,02,12,8.90
2020,04,11,02,13,8.90
2020,04,11,02,14,8.90
2020,04,11,02,15,8.90
2020,04,11,02,16,8.90
2020,04,11,02,17,8.90
2020,04,11,02,18,8.80
2020,04,11,02,19,8.80
2020,04,11,02,20,8.80
2020,04,11,02,21,8.80
2020,04,11,02,22,8.80
2020,04,11,02,23,8.80
2020,04,11,02,24,8.80
2020,04,11,02,25,8.80
2020,04,11,02,26,8.80
2020,04,11,02,27,8.80
2020,04,11,02,28,8.80
2020,04,11,02,29,8.80
2020,04,11,02,30,8.80
2020,04,11,02,31,8.80
2020,04,11,02,32,8.70
2020,04,11,02,33,8.70
2020,04,11,02,34,8.70
2020,04,11,02,35,8.70
2020,04,11,02,36,8.70
2020,04,11,02,37,8.60
2020,04,11,02,38,8.60
2020,04,11,02,39,8.60
2020,04,11,02,40,8.60
2020,04,11,02,41,8.60
2020,04,11,02,42,8.60
2020,04,11,02,43,8.60
2020,04,11,02,44,8.60
2020,04,11,02,45,8.50
2020,04,11,02,46,8.50
2020,04,11,02,47,8.50
2020,04,11,02,48,8.50
2020,04,11,02,49,8.40
2020,04,11,02,50,8.40
2020,04,11,02,51,8.40
2020,04,11,02,52,8.40
2020,04,11,02,53,8.40
2020,04,11,02,54,8.40
2020,04,11,02,55,8.40
2020,04,11,02,56,8.40
2020,04,11,02,57,8.40
2020,04,11,02,58,8.40
2020,04,11,02,59,8.40
2020,04,11,03,00,8.30
2020,04,11,03,01,8.30
2020,04,11,03,02,8.30
2020,04,11,03,03,8.30
2020,04,11,03,04,8.30
2020,04,11,03,05,8.30
2020,04,11,03,06,8.30
2020,04,11,03,07,8.30
2020,04,11,03,08,8.30
2020,04,11,03,09,8.30
2020,04,11,03,10,8.30
2020,04,11,03,11,8.20
2020,04,11,03,12,8.20
2020,04,11,03,13,8.20
2020,04,11,03,14,8.20
2020,04,11,03,15,8.20
2020,04,11,03,16,8.20
2020,04,11,03,17,8.20
2020,04,11,03,18,8.20
2020,04,11,03,19,8.20
2020,04,11,03,20,8.10
2020,04,11,03,21,8.10
2020,04,11,03,22,8.10
2020,04,11,03,23,8.20
2020,04,11,03,24,8.20
2020,04,11,03,25,8.20
2020,04,11,03,26,8.20
2020,04,11,03,27,8.20
2020,04,11,03,28,8.20
2020,04,11,03,29,8.20
2020,04,11,03,30,8.20
2020,04,11,03,31,8.20
2020,04,11,03,32,8.10
2020,04,11,03,33,8.10
2020,04,11,03,34,8.10
2020,04,11,03,35,8.10
2020,04,11,03,36,8.10
2020,04,11,03,37,8.10
2020,04,11,03,38,8.10
2020,04,11,03,39,8.10
2020,04,11,03,40,8.10
2020,04,11,03,41,8.10
2020,04,11,03,42,8.10
2020,04,11,03,43,8.10
2020,04,11,03,44,8.10
2020,04,11,03,45,8.10
2020,04,11,03,46,8.10
2020,04,11,03,47,8.10
2020,04,11,03,48,8.10
2020,04,11,03,49,8.10
2020,04,11,03,50,8.10
2020,04,11,03,51,8.10
2020,04,11,03,52,8.10
2020,04,11,03,53,8.10
2020,04,11,03,54,8.10
2020,04,11,03,55,8.00
2020,04,11,03,56,8.00
2020,04,11,03,57,8.00
2020,04,11,03,58,8.00
2020,04,11,03,59,8.00
2020,04,11,04,00,8.00
2020,04,11,04,01,8.00
2020,04,11,04,02,7.90
2020,04,11,04,03,7.90
2020,04,11,04,04,7.90
2020,04,11,04,05,7.90
2020,04,11,04,06,7.90
2020,04,11,04,07,7.80
2020,04,11,04,08,7.80
2020,04,11,04,09,7.80
2020,04,11,04,10,7.80
2020,04,11,04,11,7.80
2020,04,11,04,12,7.80
2020,04,11,04,13,7.80
2020,04,11,04,14,7.80
2020,04,11,04,15,7.90
2020,04,11,04,16,7.90
2020,04,11,04,17,7.80
2020,04,11,04,18,7.80
2020,04,11,04,19,7.80
2020,04,11,04,20,7.80
2020,04,11,04,21,7.90
2020,04,11,04,22,7.90
2020,04,11,04,23,7.80
2020,04,11,04,24,7.80
2020,04,11,04,25,7.80
2020,04,11,04,26,7.80
2020,04,11,04,27,7.80
2020,04,11,04,28,7.80
2020,04,11,04,29,7.80
2020,04,11,04,30,7.80
2020,04,11,04,31,7.80
2020,04,11,04,32,7.80
2020,04,11,04,33,7.80
2020,04,11,04,34,7.70
2020,04,11,04,35,7.70
2020,04,11,04,36,7.70
2020,04,11,04,37,7.70
2020,04,11,04,38,7.70
2020,04,11,04,39,7.70
2020,04,11,04,40,7.70
2020,04,11,04,41,7.70
2020,04,11,04,42,7.70
2020,04,11,04,43,7.70
2020,04,11,04,44,7.60
2020,04,11,04,45,7.60
2020,04,11,04,46,7.60
2020,04,11,04,47,7.60
2020,04,11,04,48,7.60
2020,04,11,04,49,7.60
2020,04,11,04,50,7.60
2020,04,11,04,51,7.60
2020,04,11,04,52,7.60
2020,04,11,04,53,7.60
2020,04,11,04,54,7.60
2020,04,11,04,55,7.60
2020,04,11,04,56,7.60
2020,04,11,04,57,7.60
2020,04,11,04,58,7.50
2020,04,11,04,59,7.50
2020,04,11,05,00,7.50
2020,04,11,05,01,7.50
2020,04,11,05,02,7.50
2020,04,11,05,03,7.50
2020,04,11,05,04,7.50
2020,04,11,05,05,7.50
2020,04,11,05,06,7.40
2020,04,11,05,07,7.40
2020,04,11,05,08,7.40
2020,04,11,05,09,7.40
2020,04,11,05,10,7.40
2020,04,11,05,11,7.40
2020,04,11,05,12,7.40
2020,04,11,05,13,7.40
2020,04,11,05,14,7.40
2020,04,11,05,15,7.40
2020,04,11,05,16,7.30
2020,04,11,05,17,7.30
2020,04,11,05,18,7.40
2020,04,11,05,19,7.40
2020,04,11,05,20,7.40
2020,04,11,05,21,7.40
2020,04,11,05,22,7.40
2020,04,11,05,23,7.40
2020,04,11,05,24,7.40
2020,04,11,05,25,7.40
2020,04,11,05,26,7.40
2020,04,11,05,27,7.40
2020,04,11,05,28,7.40
2020,04,11,05,29,7.40
2020,04,11,05,30,7.40
2020,04,11,05,31,7.50
2020,04,11,05,32,7.50
2020,04,11,05,33,7.50
2020,04,11,05,34,7.50
2020,04,11,05,35,7.50
2020,04,11,05,36,7.50
2020,04,11,05,37,7.50
2020,04,11,05,38,7.50
2020,04,11,05,39,7.50
2020,04,11,05,40,7.40
2020,04,11,05,41,7.40
2020,04,11,05,42,7.40
2020,04,11,05,43,7.40
2020,04,11,05,44,7.40
2020,04,11,05,45,7.30
2020,04,11,05,46,7.30
2020,04,11,05,47,7.30
2020,04,11,05,48,7.30
2020,04,11,05,49,7.30
2020,04,11,05,50,7.30
2020,04,11,05,51,7.30
2020,04,11,05,52,7.30
2020,04,11,05,53,7.30
2020,04,11,05,54,7.30
2020,04,11,05,55,7.30
2020,04,11,05,56,7.30
2020,04,11,05,57,7.30
2020,04,11,05,58,7.30
2020,04,11,05,59,7.30
2020,04,11,06,00,7.30
2020,04,11,06,01,7.30
2020,04,11,06,02,7.30
2020,04,11,06,03,7.30
2020,04,11,06,04,7.30
2020,04,11,06,05,7.30
2020,04,11,06,06,7.30
2020,04,11,06,07,7.20
2020,04,11,06,08,7.20
2020,04,11,06,09,7.20
2020,04,11,06,10,7.20
2020,04,11,06,11,7.20
2020,04,11,06,12,7.20
2020,04,11,06,13,7.20
2020,04,11,06,14,7.20
2020,04,11,06,15,7.20
2020,04,11,06,16,7.20
2020,04,11,06,17,7.20
2020,04,11,06,18,7.20
2020,04,11,06,19,7.20
2020,04,11,06,20,7.20
2020,04,11,06,21,7.20
2020,04,11,06,22,7.20
2020,04,11,06,23,7.20
2020,04,11,06,24,7.20
2020,04,11,06,25,7.20
2020,04,11,06,26,7.20
2020,04,11,06,27,7.20
2020,04,11,06,28,7.20
2020,04,11,06,29,7.20
2020,04,11,06,30,7.20
2020,04,11,06,31,7.20
2020,04,11,06,32,7.20
2020,04,11,06,33,7.20
2020,04,11,06,34,7.20
2020,04,11,06,35,7.20
2020,04,11,06,36,7.20
2020,04,11,06,37,7.20
2020,04,11,06,38,7.20
2020,04,11,06,39,7.20
2020,04,11,06,40,7.10
2020,04,11,06,41,7.20
2020,04,11,06,42,7.20
2020,04,11,06,43,7.20
2020,04,11,06,44,7.20
2020,04,11,06,45,7.20
2020,04,11,06,46,7.10
2020,04,11,06,47,7.10
2020,04,11,06,48,7.20
2020,04,11,06,49,7.20
2020,04,11,06,50,7.20
2020,04,11,06,51,7.20
2020,04,11,06,52,7.20
2020,04,11,06,53,7.20
2020,04,11,06,54,7.30
2020,04,11,06,55,7.30
2020,04,11,06,56,7.30
2020,04,11,06,57,7.20
2020,04,11,06,58,7.20
2020,04,11,06,59,7.20
2020,04,11,07,00,7.20
2020,04,11,07,01,7.20
2020,04,11,07,02,7.20
2020,04,11,07,03,7.20
2020,04,11,07,04,7.20
2020,04,11,07,05,7.20
2020,04,11,07,06,7.20
2020,04,11,07,07,7.20
2020,04,11,07,08,7.20
2020,04,11,07,09,7.20
2020,04,11,07,10,7.20
2020,04,11,07,11,7.20
2020,04,11,07,12,7.20
2020,04,11,07,13,7.20
2020,04,11,07,14,7.20
2020,04,11,07,15,7.20
2020,04,11,07,16,7.30
2020,04,11,07,17,7.30
2020,04,11,07,18,7.30
2020,04,11,07,19,7.30
2020,04,11,07,20,7.30
2020,04,11,07,21,7.30
2020,04,11,07,22,7.40
2020,04,11,07,23,7.30
2020,04,11,07,24,7.40
2020,04,11,07,25,7.40
2020,04,11,07,26,7.50
2020,04,11,07,27,7.50
2020,04,11,07,28,7.60
2020,04,11,07,29,7.60
2020,04,11,07,30,7.60
2020,04,11,07,31,7.70
2020,04,11,07,32,7.70
2020,04,11,07,33,7.80
2020,04,11,07,34,7.80
2020,04,11,07,35,7.80
2020,04,11,07,36,7.80
2020,04,11,07,37,7.90
2020,04,11,07,38,7.90
2020,04,11,07,39,7.90
2020,04,11,07,40,8.00
2020,04,11,07,41,8.00
2020,04,11,07,42,8.00
2020,04,11,07,43,8.10
2020,04,11,07,44,8.10
2020,04,11,07,45,8.20
2020,04,11,07,46,8.20
2020,04,11,07,47,8.30
2020,04,11,07,48,8.30
2020,04,11,07,49,8.30
2020,04,11,07,50,8.30
2020,04,11,07,51,8.40
2020,04,11,07,52,8.40
2020,04,11,07,53,8.40
2020,04,11,07,54,8.40
2020,04,11,07,55,8.40
2020,04,11,07,56,8.50
2020,04,11,07,57,8.50
2020,04,11,07,58,8.50
2020,04,11,07,59,8.60
2020,04,11,08,00,8.60
2020,04,11,08,01,8.60
2020,04,11,08,02,8.60
2020,04,11,08,03,8.70
2020,04,11,08,04,8.70
2020,04,11,08,05,8.70
2020,04,11,08,06,8.70
2020,04,11,08,07,8.70
2020,04,11,08,08,8.70
2020,04,11,08,09,8.80
2020,04,11,08,10,8.80
2020,04,11,08,11,8.80
2020,04,11,08,12,8.80
2020,04,11,08,13,8.90
2020,04,11,08,14,8.90
2020,04,11,08,15,8.90
2020,04,11,08,16,8.90
2020,04,11,08,17,9.00
2020,04,11,08,18,9.00
2020,04,11,08,19,9.10
2020,04,11,08,20,9.10
2020,04,11,08,21,9.20
2020,04,11,08,22,9.20
2020,04,11,08,23,9.20
2020,04,11,08,24,9.30
2020,04,11,08,25,9.30
2020,04,11,08,26,9.40
2020,04,11,08,27,9.40
2020,04,11,08,28,9.40
2020,04,11,08,29,9.50
2020,04,11,08,30,9.50
2020,04,11,08,31,9.60
2020,04,11,08,32,9.60
2020,04,11,08,33,9.60
2020,04,11,08,34,9.70
2020,04,11,08,35,9.70
2020,04,11,08,36,9.70
2020,04,11,08,37,9.80
2020,04,11,08,38,9.80
2020,04,11,08,39,9.80
2020,04,11,08,40,9.90
2020,04,11,08,41,9.90
2020,04,11,08,42,10.00
2020,04,11,08,43,10.00
2020,04,11,08,44,10.00
2020,04,11,08,45,10.10
2020,04,11,08,46,10.10
2020,04,11,08,47,10.10
2020,04,11,08,48,10.10
2020,04,11,08,49,10.10
2020,04,11,08,50,10.20
2020,04,11,08,51,10.20
2020,04,11,08,52,10.20
2020,04,11,08,53,10.20
2020,04,11,08,54,10.30
2020,04,11,08,55,10.30
2020,04,11,08,56,10.40
2020,04,11,08,57,10.40
2020,04,11,08,58,10.50
2020,04,11,08,59,10.50
2020,04,11,09,00,10.50
2020,04,11,09,01,10.60
2020,04,11,09,02,10.60
2020,04,11,09,03,10.70
2020,04,11,09,04,10.70
2020,04,11,09,05,10.70
2020,04,11,09,06,10.70
2020,04,11,09,07,10.70
2020,04,11,09,08,10.80
2020,04,11,09,09,10.80
2020,04,11,09,10,10.80
2020,04,11,09,11,10.90
2020,04,11,09,12,10.90
2020,04,11,09,13,11.00
2020,04,11,09,14,11.10
2020,04,11,09,15,11.00
2020,04,11,09,16,11.10
2020,04,11,09,17,11.10
2020,04,11,09,18,11.20
2020,04,11,09,19,11.20
2020,04,11,09,20,11.30
2020,04,11,09,21,11.30
2020,04,11,09,22,11.40
2020,04,11,09,23,11.40
2020,04,11,09,24,11.40
2020,04,11,09,25,11.50
2020,04,11,09,26,11.50
2020,04,11,09,27,11.60
2020,04,11,09,28,11.60
2020,04,11,09,29,11.70
2020,04,11,09,30,11.70
2020,04,11,09,31,11.70
2020,04,11,09,32,11.70
2020,04,11,09,33,11.70
2020,04,11,09,34,11.70
2020,04,11,09,35,11.80
2020,04,11,09,36,11.80
2020,04,11,09,37,11.80
2020,04,11,09,38,11.90
2020,04,11,09,39,11.90
2020,04,11,09,40,11.90
2020,04,11,09,41,12.00
2020,04,11,09,42,12.00
2020,04,11,09,43,12.10
2020,04,11,09,44,12.10
2020,04,11,09,45,12.20
2020,04,11,09,46,12.30
2020,04,11,09,47,12.30
2020,04,11,09,48,12.40
2020,04,11,09,49,12.40
2020,04,11,09,50,12.40
2020,04,11,09,51,12.50
2020,04,11,09,52,12.50
2020,04,11,09,53,12.50
2020,04,11,09,54,12.50
2020,04,11,09,55,12.50
2020,04,11,09,56,12.60
2020,04,11,09,57,12.60
2020,04,11,09,58,12.60
2020,04,11,09,59,12.60
2020,04,11,10,00,12.70
2020,04,11,10,01,12.80
2020,04,11,10,02,12.90
2020,04,11,10,03,12.90
2020,04,11,10,04,12.80
2020,04,11,10,05,12.80
2020,04,11,10,06,12.80
2020,04,11,10,07,12.80
2020,04,11,10,08,12.80
2020,04,11,10,09,12.80
2020,04,11,10,10,12.90
2020,04,11,10,11,12.90
2020,04,11,10,12,12.90
2020,04,11,10,13,12.90
2020,04,11,10,14,12.90
2020,04,11,10,15,12.90
2020,04,11,10,16,12.90
2020,04,11,10,17,12.80
2020,04,11,10,18,12.80
2020,04,11,10,19,12.80
2020,04,11,10,20,12.80
2020,04,11,10,21,12.80
2020,04,11,10,22,12.90
2020,04,11,10,23,12.90
2020,04,11,10,24,12.90
2020,04,11,10,25,13.00
2020,04,11,10,26,12.90
2020,04,11,10,27,12.90
2020,04,11,10,28,12.90
2020,04,11,10,29,12.90
2020,04,11,10,30,13.00
2020,04,11,10,31,13.00
2020,04,11,10,32,13.10
2020,04,11,10,33,13.10
2020,04,11,10,34,13.10
2020,04,11,10,35,13.10
2020,04,11,10,36,13.10
2020,04,11,10,37,13.10
2020,04,11,10,38,13.20
2020,04,11,10,39,13.10
2020,04,11,10,40,13.10
2020,04,11,10,41,13.20
2020,04,11,10,42,13.10
2020,04,11,10,43,13.10
2020,04,11,10,44,13.10
2020,04,11,10,45,13.10
2020,04,11,10,46,13.10
2020,04,11,10,47,13.20
2020,04,11,10,48,13.20
2020,04,11,10,49,13.20
2020,04,11,10,50,13.20
2020,04,11,10,51,13.20
2020,04,11,10,52,13.20
2020,04,11,10,53,13.20
2020,04,11,10,54,13.20
2020,04,11,10,55,13.20
2020,04,11,10,56,13.20
2020,04,11,10,57,13.20
2020,04,11,10,58,13.30
2020,04,11,10,59,13.30
2020,04,11,11,00,13.30
2020,04,11,11,01,13.40
2020,04,11,11,02,13.40
2020,04,11,11,03,13.30
2020,04,11,11,04,13.30
2020,04,11,11,05,13.30
2020,04,11,11,06,13.30
2020,04,11,11,07,13.30
2020,04,11,11,08,13.30
2020,04,11,11,09,13.40
2020,04,11,11,10,13.40
2020,04,11,11,11,13.40
2020,04,11,11,12,13.50
2020,04,11,11,13,13.50
2020,04,11,11,14,13.50
2020,04,11,11,15,13.50
2020,04,11,11,16,13.50
2020,04,11,11,17,13.50
2020,04,11,11,18,13.50
2020,04,11,11,19,13.50
2020,04,11,11,20,13.50
2020,04,11,11,21,13.50
2020,04,11,11,22,13.60
2020,04,11,11,23,13.60
2020,04,11,11,24,13.70
2020,04,11,11,25,13.70
2020,04,11,11,26,13.80
2020,04,11,11,27,13.80
2020,04,11,11,28,13.80
2020,04,11,11,29,13.80
2020,04,11,11,30,13.80
2020,04,11,11,31,13.80
2020,04,11,11,32,13.80
2020,04,11,11,33,13.80
2020,04,11,11,34,13.80
2020,04,11,11,35,13.90
2020,04,11,11,36,13.90
2020,04,11,11,37,13.90
2020,04,11,11,38,13.90
2020,04,11,11,39,14.00
2020,04,11,11,40,14.10
2020,04,11,11,41,14.10
2020,04,11,11,42,14.20
2020,04,11,11,43,14.20
2020,04,11,11,44,14.20
2020,04,11,11,45,14.20
2020,04,11,11,46,14.20
2020,04,11,11,47,14.20
2020,04,11,11,48,14.10
2020,04,11,11,49,14.10
2020,04,11,11,50,14.10
2020,04,11,11,51,14.10
2020,04,11,11,52,14.10
2020,04,11,11,53,14.20
2020,04,11,11,54,14.20
2020,04,11,11,55,14.20
2020,04,11,11,56,14.20
2020,04,11,11,57,14.30
2020,04,11,11,58,14.30
2020,04,11,11,59,14.30
2020,04,11,12,00,14.30
2020,04,11,12,01,14.30
2020,04,11,12,02,14.30
2020,04,11,12,03,14.20
2020,04,11,12,04,14.20
2020,04,11,12,05,14.20
2020,04,11,12,06,14.30
2020,04,11,12,07,14.40
2020,04,11,12,08,14.40
2020,04,11,12,09,14.50
2020,04,11,12,10,14.60
2020,04,11,12,11,14.70
2020,04,11,12,12,14.60
2020,04,11,12,13,14.60
2020,04,11,12,14,14.60
2020,04,11,12,15,14.60
2020,04,11,12,16,14.60
2020,04,11,12,17,14.70
2020,04,11,12,18,14.80
2020,04,11,12,19,14.90
2020,04,11,12,20,14.90
2020,04,11,12,21,14.90
2020,04,11,12,22,14.90
2020,04,11,12,23,15.00
2020,04,11,12,24,14.90
2020,04,11,12,25,14.90
2020,04,11,12,26,14.90
2020,04,11,12,27,14.90
2020,04,11,12,28,14.90
2020,04,11,12,29,14.80
2020,04,11,12,30,14.80
2020,04,11,12,31,14.80
2020,04,11,12,32,14.80
2020,04,11,12,33,14.80
2020,04,11,12,34,14.70
2020,04,11,12,35,14.70
2020,04,11,12,36,14.70
2020,04,11,12,37,14.60
2020,04,11,12,38,14.60
2020,04,11,12,39,14.60
2020,04,11,12,40,14.60
2020,04,11,12,41,14.60
2020,04,11,12,42,14.70
2020,04,11,12,43,14.80
2020,04,11,12,44,14.80
2020,04,11,12,45,14.80
2020,04,11,12,46,14.80
2020,04,11,12,47,14.80
2020,04,11,12,48,14.90
2020,04,11,12,49,14.90
2020,04,11,12,50,14.90
2020,04,11,12,51,15.00
2020,04,11,12,52,15.00
2020,04,11,12,53,14.90
2020,04,11,12,54,14.80
2020,04,11,12,55,14.80
2020,04,11,12,56,14.70
2020,04,11,12,57,14.70
2020,04,11,12,58,14.70
2020,04,11,12,59,14.60
2020,04,11,13,00,14.60
2020,04,11,13,01,14.50
2020,04,11,13,02,14.50
2020,04,11,13,03,14.50
2020,04,11,13,04,14.50
2020,04,11,13,05,14.50
2020,04,11,13,06,14.50
2020,04,11,13,07,14.50
2020,04,11,13,08,14.60
2020,04,11,13,09,14.70
2020,04,11,13,10,14.70
2020,04,11,13,11,14.80
2020,04,11,13,12,14.80
2020,04,11,13,13,14.70
2020,04,11,13,14,14.70
2020,04,11,13,15,14.70
2020,04,11,13,16,14.70
2020,04,11,13,17,14.70
2020,04,11,13,18,14.70
2020,04,11,13,19,14.70
2020,04,11,13,20,14.80
2020,04,11,13,21,14.80
2020,04,11,13,22,14.80
2020,04,11,13,23,14.80
2020,04,11,13,24,14.90
2020,04,11,13,25,15.00
2020,04,11,13,26,15.10
2020,04,11,13,27,15.10
2020,04,11,13,28,15.10
2020,04,11,13,29,15.20
2020,04,11,13,30,15.30
2020,04,11,13,31,15.20
2020,04,11,13,32,15.20
2020,04,11,13,33,15.30
2020,04,11,13,34,15.40
2020,04,11,13,35,15.40
2020,04,11,13,36,15.40
2020,04,11,13,37,15.40
2020,04,11,13,38,15.50
2020,04,11,13,39,15.50
2020,04,11,13,40,15.50
2020,04,11,13,41,15.60
2020,04,11,13,42,15.60
2020,04,11,13,43,15.70
2020,04,11,13,44,15.70
2020,04,11,13,45,15.80
2020,04,11,13,46,15.80
2020,04,11,13,47,15.80
2020,04,11,13,48,15.80
2020,04,11,13,49,15.80
2020,04,11,13,50,15.80
2020,04,11,13,51,15.80
2020,04,11,13,52,15.80
2020,04,11,13,53,15.70
2020,04,11,13,54,15.70
2020,04,11,13,55,15.70
2020,04,11,13,56,15.60
2020,04,11,13,57,15.70
2020,04,11,13,58,15.80
2020,04,11,13,59,15.90
2020,04,11,14,00,16.00
2020,04,11,14,01,16.10
2020,04,11,14,02,16.20
2020,04,11,14,03,16.20
2020,04,11,14,04,16.20
2020,04,11,14,05,16.20
2020,04,11,14,06,16.10
2020,04,11,14,07,16.10
2020,04,11,14,08,16.10
2020,04,11,14,09,16.10
2020,04,11,14,10,16.10
2020,04,11,14,11,16.20
2020,04,11,14,12,16.20
2020,04,11,14,13,16.20
2020,04,11,14,14,16.10
2020,04,11,14,15,16.00
2020,04,11,14,16,15.80
2020,04,11,14,17,15.70
2020,04,11,14,18,15.70
2020,04,11,14,19,15.60
2020,04,11,14,20,15.60
2020,04,11,14,21,15.50
2020,04,11,14,22,15.60
2020,04,11,14,23,15.60
2020,04,11,14,24,15.60
2020,04,11,14,25,15.60
2020,04,11,14,26,15.70
2020,04,11,14,27,15.70
2020,04,11,14,28,15.80
2020,04,11,14,29,15.90
2020,04,11,14,30,15.90
2020,04,11,14,31,15.90
2020,04,11,14,32,15.90
2020,04,11,14,33,15.90
2020,04,11,14,34,16.00
2020,04,11,14,35,16.10
2020,04,11,14,36,16.00
2020,04,11,14,37,16.00
2020,04,11,14,38,16.00
2020,04,11,14,39,16.00
2020,04,11,14,40,16.00
2020,04,11,14,41,16.00
2020,04,11,14,42,16.00
2020,04,11,14,43,16.10
2020,04,11,14,44,16.10
2020,04,11,14,45,16.10
2020,04,11,14,46,16.10
2020,04,11,14,47,16.20
2020,04,11,14,48,16.20
2020,04,11,14,49,16.20
2020,04,11,14,50,16.20
2020,04,11,14,51,16.20
2020,04,11,14,52,16.20
2020,04,11,14,53,16.20
2020,04,11,14,54,16.20
2020,04,11,14,55,16.30
2020,04,11,14,56,16.30
2020,04,11,14,57,16.40
2020,04,11,14,58,16.40
2020,04,11,14,59,16.40
2020,04,11,15,00,16.30
2020,04,11,15,01,16.30
2020,04,11,15,02,16.20
2020,04,11,15,03,16.20
2020,04,11,15,04,16.20
2020,04,11,15,05,16.30
2020,04,11,15,06,16.30
2020,04,11,15,07,16.30
2020,04,11,15,08,16.40
2020,04,11,15,09,16.40
2020,04,11,15,10,16.50
2020,04,11,15,11,16.60
2020,04,11,15,12,16.60
2020,04,11,15,13,16.60
2020,04,11,15,14,16.60
2020,04,11,15,15,16.50
2020,04,11,15,16,16.50
2020,04,11,15,17,16.50
2020,04,11,15,18,16.50
2020,04,11,15,19,16.50
2020,04,11,15,20,16.40
2020,04,11,15,21,16.40
2020,04,11,15,22,16.50
2020,04,11,15,23,16.50
2020,04,11,15,24,16.60
2020,04,11,15,25,16.60
2020,04,11,15,26,16.70
2020,04,11,15,27,16.80
2020,04,11,15,28,16.90
2020,04,11,15,29,16.90
2020,04,11,15,30,17.00
2020,04,11,15,31,17.00
2020,04,11,15,32,16.90
2020,04,11,15,33,16.80
2020,04,11,15,34,16.80
2020,04,11,15,35,16.70
2020,04,11,15,36,16.70
2020,04,11,15,37,16.70
2020,04,11,15,38,16.70
2020,04,11,15,39,16.70
2020,04,11,15,40,16.60
2020,04,11,15,41,16.50
2020,04,11,15,42,16.40
2020,04,11,15,43,16.30
2020,04,11,15,44,16.30
2020,04,11,15,45,16.30
2020,04,11,15,46,16.20
2020,04,11,15,47,16.20
2020,04,11,15,48,16.20
2020,04,11,15,49,16.30
2020,04,11,15,50,16.30
2020,04,11,15,51,16.30
2020,04,11,15,52,16.40
2020,04,11,15,53,16.40
2020,04,11,15,54,16.40
2020,04,11,15,55,16.40
2020,04,11,15,56,16.30
2020,04,11,15,57,16.40
2020,04,11,15,58,16.50
2020,04,11,15,59,16.60
2020,04,11,16,00,16.60
2020,04,11,16,01,16.70
2020,04,11,16,02,16.70
2020,04,11,16,03,16.60
2020,04,11,16,04,16.60
2020,04,11,16,05,16.50
2020,04,11,16,06,16.40
2020,04,11,16,07,16.30
2020,04,11,16,08,16.20
2020,04,11,16,09,16.20
2020,04,11,16,10,16.20
2020,04,11,16,11,16.20
2020,04,11,16,12,16.20
2020,04,11,16,13,16.10
2020,04,11,16,14,16.10
2020,04,11,16,15,16.10
2020,04,11,16,16,16.10
2020,04,11,16,17,16.10
2020,04,11,16,18,16.10
2020,04,11,16,19,16.10
2020,04,11,16,20,16.10
2020,04,11,16,21,16.20
2020,04,11,16,22,16.20
2020,04,11,16,23,16.20
2020,04,11,16,24,16.20
2020,04,11,16,25,16.30
2020,04,11,16,26,16.30
2020,04,11,16,27,16.20
2020,04,11,16,28,16.20
2020,04,11,16,29,16.30
2020,04,11,16,30,16.30
2020,04,11,16,31,16.30
2020,04,11,16,32,16.30
2020,04,11,16,33,16.30
2020,04,11,16,34,16.30
2020,04,11,16,35,16.30
2020,04,11,16,36,16.40
2020,04,11,16,37,16.40
2020,04,11,16,38,16.30
2020,04,11,16,39,16.30
2020,04,11,16,40,16.30
2020,04,11,16,41,16.20
2020,04,11,16,42,16.20
2020,04,11,16,43,16.20
2020,04,11,16,44,16.20
2020,04,11,16,45,16.20
2020,04,11,16,46,16.30
2020,04,11,16,47,16.40
2020,04,11,16,48,16.40
2020,04,11,16,49,16.30
2020,04,11,16,50,16.30
2020,04,11,16,51,16.30
2020,04,11,16,52,16.30
2020,04,11,16,53,16.30
2020,04,11,16,54,16.30
2020,04,11,16,55,16.30
2020,04,11,16,56,16.30
2020,04,11,16,57,16.30
2020,04,11,16,58,16.30
2020,04,11,16,59,16.30
2020,04,11,17,00,16.30
2020,04,11,17,01,16.30
2020,04,11,17,02,16.30
2020,04,11,17,03,16.30
2020,04,11,17,04,16.30
2020,04,11,17,05,16.30
2020,04,11,17,06,16.30
2020,04,11,17,07,16.30
2020,04,11,17,08,16.30
2020,04,11,17,09,16.30
2020,04,11,17,10,16.40
2020,04,11,17,11,16.50
2020,04,11,17,12,16.60
2020,04,11,17,13,16.70
2020,04,11,17,14,16.70
2020,04,11,17,15,16.60
2020,04,11,17,16,16.60
2020,04,11,17,17,16.50
2020,04,11,17,18,16.50
2020,04,11,17,19,16.50
2020,04,11,17,20,16.50
2020,04,11,17,21,16.50
2020,04,11,17,22,16.60
2020,04,11,17,23,16.60
2020,04,11,17,24,16.50
2020,04,11,17,25,16.40
2020,04,11,17,26,16.30
2020,04,11,17,27,16.20
2020,04,11,17,28,16.20
2020,04,11,17,29,16.20
2020,04,11,17,30,16.20
2020,04,11,17,31,16.20
2020,04,11,17,32,16.30
2020,04,11,17,33,16.30
2020,04,11,17,34,16.40
2020,04,11,17,35,16.50
2020,04,11,17,36,16.50
2020,04,11,17,37,16.60
2020,04,11,17,38,16.60
2020,04,11,17,39,16.60
2020,04,11,17,40,16.60
2020,04,11,17,41,16.60